Lapse_Rate
6.4 6.4 6.5 6.4 6.2 6.1 5.8 5.7 5.7 5.7 5.6 5.6 5.5 5.5 5.6 5.7 5.7 5.8 5.9 6.0 6.1 6.1 6.3 6.5 6.7 6.8 7.2 7.4 7.6 7.3 6.9 7.0 7.1 7.2 7.3 7.2 7.1 7.3 7.3 7.2 7.0 7.0 7.0
6.2 6.2 6.1 5.9 5.9 5.9 5.8 5.7 5.5 5.5 5.5 5.5 5.6 5.7 5.8 5.9 6.1 6.2 6.4 6.4 6.3 6.3 6.4 6.5 6.7 6.9 7.0 7.1 7.4 7.5 7.5 7.5 7.4 7.0 6.7 7.0 7.3 7.2 7.2 7.2 7.1 7.1 7.1
6.1 6.0 5.9 5.7 5.6 5.5 5.5 5.6 5.6 5.6 5.6 5.8 5.9 6.0 6.1 6.4 6.6 6.7 6.7 6.6 6.6 6.7 6.8 7.0 7.0 7.0 7.0 7.0 7.1 7.2 7.2 7.4 7.4 7.5 7.6 7.5 7.1 6.9 7.1 7.2 7.1 7.0 6.9
5.9 5.7 5.8 5.6 5.6 5.7 5.7 5.7 5.6 5.7 6.0 6.1 6.2 6.5 6.6 6.8 6.9 6.8 6.8 6.8 6.8 6.8 6.9 6.9 6.9 6.9 6.9 6.9 6.9 7.0 7.1 7.2 7.4 7.5 7.6 7.5 7.6 7.8 7.5 7.2 6.9 7.0 7.0
5.9 5.9 5.9 5.8 5.6 5.6 5.6 5.7 5.9 6.0 6.2 6.4 6.6 6.9 7.0 7.0 6.9 6.8 6.8 6.7 6.8 6.9 7.0 7.0 7.0 7.0 6.9 6.9 6.8 6.7 6.8 6.7 6.8 6.7 6.5 6.6 6.7 7.2 7.6 7.8 7.6 7.0 6.8
6.2 6.2 6.1 5.7 5.6 5.7 6.0 6.2 6.2 6.3 6.6 6.8 6.8 7.0 7.0 7.0 7.0 6.9 6.7 6.6 6.7 6.6 6.5 6.4 6.3 6.4 6.4 6.5 6.4 6.3 6.1 6.0 5.8 5.8 5.7 5.8 4.8 4.4 5.0 5.8 6.4 7.3 6.9
6.4 6.3 6.2 6.1 6.4 6.3 6.3 6.2 6.3 6.5 6.6 6.7 6.8 7.0 7.0 7.0 7.0 6.9 6.9 6.7 6.4 6.3 6.3 6.2 6.2 6.2 6.3 6.4 6.3 6.1 5.8 5.4 5.0 4.9 4.9 4.8 4.6 4.3 3.6 3.0 3.5 4.1 4.9
6.4 6.3 6.4 6.4 6.4 6.2 6.2 6.3 6.5 6.6 6.6 6.6 6.7 6.8 6.8 6.9 6.9 6.6 6.7 6.7 6.7 6.7 6.4 6.1 6.0 6.0 6.0 5.9 5.7 5.5 5.6 5.5 5.4 5.1 4.7 4.4 4.3 4.2 4.0 3.5 3.3 3.3 3.5
6.4 6.4 6.3 6.3 6.3 6.2 6.2 6.2 6.2 6.3 6.3 6.6 6.6 6.6 6.4 6.4 6.4 6.5 6.4 6.3 6.2 6.1 6.0 6.0 5.9 5.6 5.4 5.3 5.2 5.0 4.6 4.4 4.4 4.2 4.1 4.2 4.3 4.3 4.3 4.3 3.6 2.5 3.5
6.4 6.3 6.3 6.4 6.2 6.1 6.4 6.3 6.3 6.7 6.5 6.5 6.5 6.4 6.3 6.1 6.0 6.1 5.9 5.8 5.6 5.5 5.3 5.2 4.9 4.5 4.6 4.7 4.7 4.6 4.7 4.4 4.2 4.1 4.0 4.1 4.2 4.3 4.6 4.7 4.8 3.8 1.8
6.3 6.2 6.3 6.2 6.3 6.2 6.5 6.6 6.5 6.8 6.2 6.3 6.3 6.1 6.1 6.0 5.7 5.7 5.6 5.4 5.2 5.0 4.9 4.7 4.4 4.1 3.9 3.8 4.2 4.2 4.2 4.2 4.2 4.4 4.6 4.8 4.9 5.3 5.7 5.8 5.8 5.6 4.2
6.3 6.4 6.4 6.3 6.4 6.4 6.5 6.4 6.1 6.2 6.2 5.9 5.8 5.8 5.6 5.5 5.2 5.1 5.3 5.4 5.1 5.0 4.7 4.4 4.1 3.9 4.1 4.4 4.2 4.2 4.2 4.3 4.4 5.1 5.8 6.0 6.3 6.6 6.8 6.9 6.7 6.4 5.9
6.2 6.4 6.4 6.4 6.4 6.4 6.5 5.9 6.1 6.1 6.4 5.6 5.1 5.3 5.3 5.1 5.0 5.0 4.9 4.9 4.7 4.7 4.7 4.3 4.0 4.1 4.4 4.2 4.3 4.4 4.6 4.8 5.5 6.2 6.7 6.9 7.0 6.9 6.9 7.0 7.0 6.8 6.5
6.5 6.5 6.4 5.9 6.6 6.1 6.2 6.1 6.0 6.2 6.1 5.2 5.0 5.1 5.0 4.8 4.8 4.7 4.8 4.8 4.7 4.7 4.7 4.4 4.3 4.5 4.4 4.5 4.7 4.8 5.2 5.9 6.4 6.8 7.0 7.1 6.9 6.8 6.7 6.7 6.7 6.6 6.5
6.3 6.0 6.5 6.3 5.9 6.1 6.1 6.0 6.0 5.6 4.8 4.6 4.5 4.6 4.7 5.0 5.2 5.0 4.8 4.6 4.3 4.5 4.8 4.8 4.7 4.5 4.6 4.8 5.2 5.7 6.3 6.6 6.7 6.8 6.8 6.7 6.5 6.4 6.3 6.3 6.3 6.3 6.3
6.6 6.3 6.1 6.5 6.1 5.8 5.6 5.9 5.4 4.7 4.6 4.4 4.4 4.6 4.8 4.9 5.0 5.0 4.8 4.9 4.9 4.8 5.1 4.9 4.8 4.9 4.9 5.2 5.7 6.2 6.7 6.8 6.7 6.5 6.5 6.3 6.3 6.2 6.1 6.1 6.1 6.2 6.3
6.2 6.5 6.0 5.9 5.5 5.5 6.0 6.0 5.5 4.9 5.0 4.7 4.3 4.5 4.5 4.7 4.8 5.0 5.1 5.0 4.9 4.7 4.6 4.9 5.1 5.3 5.5 6.0 6.4 6.5 6.5 6.4 6.4 6.2 6.0 5.9 6.0 6.0 6.0 6.1 6.2 6.2 6.1
6.3 6.4 6.0 6.0 5.9 6.0 6.1 5.9 5.4 5.2 4.6 4.2 4.3 4.5 4.8 4.7 4.9 5.2 5.2 5.0 4.8 4.8 4.9 5.4 5.8 6.2 6.6 6.6 6.6 6.6 6.6 6.4 6.2 5.9 5.8 5.9 6.3 6.5 6.4 6.3 6.2 6.1 6.0
6.3 6.1 6.2 6.3 6.1 6.2 5.7 5.0 4.9 4.5 4.3 4.4 4.8 4.8 5.2 5.2 5.5 5.4 5.0 5.1 5.2 5.4 5.8 6.2 6.6 6.8 6.9 6.7 6.6 6.5 6.3 6.2 6.0 5.6 5.7 6.3 6.5 6.6 6.7 6.6 6.3 6.0 5.8
6.1 6.3 6.2 6.2 6.0 5.2 5.2 5.1 4.9 4.8 5.0 4.7 5.0 5.4 5.5 5.3 5.2 5.3 5.4 5.5 5.9 6.3 6.4 6.5 7.0 7.1 7.0 6.9 6.7 6.4 6.4 6.0 6.0 5.8 6.2 6.4 6.3 6.4 6.5 6.5 6.4 6.1 5.9
6.4 6.4 6.3 5.3 5.1 5.3 5.4 5.2 5.2 5.3 4.9 5.4 5.9 5.9 5.6 5.3 5.8 6.0 6.1 6.2 6.4 6.5 6.6 6.9 7.3 7.3 7.3 7.3 6.9 6.5 6.1 6.2 6.3 5.7 6.4 6.6 6.1 5.9 5.7 5.8 5.8 5.8 5.7
6.3 5.3 5.2 5.5 5.5 5.6 5.4 4.9 4.9 5.3 5.6 6.4 6.3 6.3 6.3 6.1 6.1 6.2 6.4 6.5 6.6 6.6 6.8 7.2 7.5 7.5 7.6 7.2 6.8 6.3 6.1 6.0 6.6 5.9 6.5 6.8 5.4 5.7 5.6 5.9 5.8 5.7 5.7
5.4 5.5 5.7 5.7 5.5 5.3 5.1 5.4 5.7 6.1 6.9 6.9 6.7 6.5 6.5 6.5 6.6 6.7 6.7 6.7 6.8 6.8 7.1 7.5 7.7 7.5 7.6 7.1 6.8 6.6 6.2 6.1 6.2 6.0 6.2 6.7 5.7 6.1 5.9 5.8 5.6 5.8 5.7
5.8 6.2 5.9 5.3 5.3 5.6 5.5 5.8 6.6 7.1 7.3 7.0 6.9 6.7 6.6 6.7 6.9 7.0 6.9 6.9 7.0 7.0 7.3 7.5 7.6 7.6 7.5 7.2 6.9 6.6 6.4 6.5 6.4 6.0 5.7 6.6 5.9 6.3 6.4 5.8 5.8 5.8 5.8
5.7 5.9 5.5 5.7 5.5 5.5 6.1 6.5 7.2 7.3 7.4 7.1 6.9 6.7 6.8 7.0 7.1 7.0 7.0 7.1 7.2 7.2 7.4 7.6 7.7 7.8 7.7 7.4 6.9 6.7 6.4 6.6 6.6 6.3 5.7 6.1 6.1 6.7 6.5 6.1 5.7 5.9 6.3
6.0 6.3 6.2 5.6 5.9 6.3 6.7 7.1 7.3 7.3 7.2 7.1 6.9 7.0 7.1 7.1 7.1 7.0 7.0 7.2 7.4 7.3 7.5 7.7 7.7 7.8 7.7 7.3 6.9 6.5 6.4 6.7 6.6 6.8 6.1 6.0 6.2 5.9 6.9 7.0 6.5 6.0 6.4
Wind_Speed
7 8 8 13 14 14 15 14 15 14 14 15 16 16 17 16 17 15 12 10 2 2 5 5 5 8 7 8 9 11 12 12 13 15 15 16 17 19 22 23 24 23 23
12 11 10 11 12 14 14 15 11 11 11 13 11 13 13 16 18 19 13 8 4 5 6 6 6 6 5 6 6 8 10 12 12 12 12 14 16 17 18 20 23 24 23
16 15 11 8 12 15 17 15 12 15 9 8 7 11 13 10 15 16 17 12 10 18 13 8 7 6 5 5 6 8 8 11 12 13 12 13 16 17 17 20 21 22 23
17 14 10 8 13 14 12 9 6 4 4 4 3 4 7 8 9 14 18 19 12 9 11 10 7 5 4 5 7 9 11 11 13 12 14 14 13 13 17 19 22 21 21
16 16 12 11 15 12 8 5 4 2 3 3 2 2 4 5 6 8 11 13 12 11 9 7 6 6 4 5 6 8 11 13 15 13 16 18 18 15 17 19 19 22 20
17 15 12 13 15 8 4 3 3 3 2 2 1 1 2 2 1 4 6 9 9 9 8 7 6 8 6 5 6 9 12 13 14 14 13 15 18 18 18 20 21 21 22
15 14 12 12 11 5 5 4 3 2 1 1 2 2 2 1 2 1 2 3 5 5 10 9 8 4 3 5 6 8 10 12 14 15 16 16 16 15 15 18 21 22 22
16 14 13 8 9 5 6 3 3 2 1 2 2 2 2 3 2 2 1 0 1 2 4 4 3 2 1 4 7 9 9 11 13 15 17 17 17 17 18 19 22 23 24
16 15 14 12 8 6 4 2 2 3 2 0 2 3 1 3 2 2 2 2 2 1 3 1 3 5 5 9 11 9 11 10 13 15 14 15 16 18 21 23 23 23 25
13 13 13 10 8 6 5 2 3 2 2 1 1 2 1 3 3 3 2 2 3 3 3 5 6 7 7 8 10 10 12 13 12 10 13 15 18 20 21 24 26 27 25
6 7 9 9 8 8 6 4 5 4 1 1 2 1 2 0 2 3 3 3 2 4 5 7 7 6 7 12 13 9 9 9 9 10 12 16 18 22 24 26 28 30 31
5 10 13 14 12 8 5 5 4 3 0 2 1 2 3 3 3 3 3 4 4 4 3 5 5 5 10 11 9 11 11 12 11 13 15 18 20 23 26 29 32 34 35
3 5 11 6 6 10 6 4 2 2 1 1 2 2 2 3 2 3 2 3 3 2 2 2 4 6 8 10 13 15 14 12 15 18 21 23 25 28 29 30 30 31 32
6 11 11 15 7 5 5 3 2 4 3 1 2 3 3 3 3 3 2 1 6 3 1 4 1 2 7 10 13 18 20 16 19 23 24 24 24 25 24 25 26 27 28
6 6 11 6 7 7 2 6 4 4 3 3 4 4 3 2 2 3 2 2 2 2 3 3 2 2 6 10 14 18 17 20 20 20 22 21 21 22 23 25 25 24 26
10 12 8 8 9 9 9 9 5 4 4 3 3 4 2 2 2 1 1 2 4 3 3 4 4 3 4 8 13 16 18 18 18 18 19 20 21 22 23 24 24 24 23
11 9 7 9 6 6 8 5 6 6 6 5 4 4 4 3 2 3 2 2 2 2 3 3 2 2 3 4 11 15 15 16 15 17 21 21 24 24 25 23 23 23 23
10 6 7 6 5 5 6 6 6 6 6 6 6 4 5 3 4 3 3 4 3 3 3 6 2 2 4 4 10 8 12 13 14 17 22 26 27 26 25 24 23 20 20
4 4 5 4 4 5 5 6 7 6 6 7 6 6 6 5 4 3 4 4 3 3 3 3 4 2 3 3 5 6 6 11 13 20 23 23 22 22 22 22 23 24 24
7 6 5 4 5 6 6 7 7 7 6 6 6 5 5 6 6 5 5 5 4 3 3 3 4 6 4 4 3 5 8 5 8 15 21 17 20 22 23 23 23 24 23
6 4 1 4 6 6 5 6 6 7 7 6 6 5 5 7 10 9 4 5 5 3 2 3 5 5 5 5 5 5 7 8 9 8 6 7 12 14 17 19 20 22 21
5 0 4 9 6 3 7 11 8 6 7 6 6 6 5 9 7 9 12 9 8 4 3 2 4 5 6 5 4 4 6 6 7 4 3 11 10 9 13 16 21 23 24
3 5 6 5 6 7 9 10 11 6 6 6 6 5 4 4 6 5 7 9 7 7 5 4 5 4 4 3 5 7 8 8 8 7 6 10 7 9 14 17 23 24 25
5 5 6 7 6 6 8 10 11 6 6 6 5 4 6 5 6 6 5 5 5 4 5 5 5 5 5 7 6 7 9 9 7 5 5 7 7 8 9 17 24 22 21
5 4 5 6 6 7 10 11 7 6 6 7 7 7 7 6 10 12 6 6 5 5 8 11 11 11 13 13 13 3 5 6 8 7 6 3 4 10 6 6 13 15 15
5 4 6 6 7 7 9 11 10 4 6 6 6 7 12 8 11 13 7 5 4 5 4 4 4 8 10 11 13 6 4 6 7 5 1 4 7 4 5 2 2 10 13
Wind_Direction
139 145 135 131 121 117 112 95 91 85 77 66 65 54 41 30 27 25 12 8 335 344 129 110 76 85 76 66 59 46 37 37 29 25 25 17 8 5 1 356 352 354 354
151 139 130 127 125 126 116 105 102 92 75 74 60 49 45 40 45 34 21 11 56 66 93 72 52 76 67 59 53 29 31 23 13 23 15 11 3 356 353 353 348 346 346
147 147 130 128 131 124 115 110 97 83 77 74 58 39 43 38 38 39 41 52 70 71 71 63 66 52 27 21 3 356 6 3 1 344 342 352 350 345 345 343 343 340 338
149 129 122 127 136 131 124 108 97 76 79 72 55 14 41 31 44 55 57 62 62 72 63 73 48 22 359 349 339 337 344 345 337 332 331 330 331 336 337 338 333 336 335
146 139 142 148 143 125 117 113 67 117 92 85 115 19 43 39 38 62 65 63 67 65 62 35 40 45 44 21 359 342 332 334 331 331 335 327 318 327 331 328 329 327 327
158 146 138 138 136 123 113 102 129 68 124 146 110 12 17 71 354 70 89 87 76 72 80 74 83 67 60 30 353 340 333 327 327 324 325 324 321 321 323 318 322 324 323
152 141 141 145 146 135 156 146 102 99 75 126 87 343 356 72 277 5 145 115 101 72 106 101 102 82 37 14 359 332 327 322 318 315 312 311 311 310 307 312 315 315 318
160 158 154 149 145 126 107 105 122 122 143 170 128 90 25 330 305 269 124 255 106 81 126 114 101 75 78 347 324 317 325 318 312 307 303 303 303 301 303 306 306 308 310
177 174 158 149 143 108 135 147 156 153 156 258 201 141 103 237 352 326 302 244 244 251 236 219 327 334 323 338 333 326 325 308 308 300 298 301 299 298 300 301 302 304 305
172 162 150 135 121 129 113 105 98 58 63 245 357 234 271 147 201 310 307 257 276 268 252 262 275 303 307 319 317 307 315 310 303 305 303 300 298 297 302 302 301 301 299
124 123 129 126 98 92 94 121 96 85 138 160 211 232 245 205 228 207 251 275 323 277 271 254 257 285 320 339 337 342 336 14 351 320 308 301 300 298 298 300 300 299 296
86 104 107 106 109 98 96 78 65 55 67 234 237 213 207 200 218 212 248 248 226 265 264 260 268 318 2 5 11 9 354 349 334 320 313 304 301 297 294 294 294 292 288
126 127 118 110 116 96 82 82 95 72 251 179 214 232 208 228 200 216 203 254 268 274 298 284 275 19 12 18 359 344 335 327 320 314 307 301 297 294 292 291 288 284 283
137 140 111 120 142 101 91 108 114 190 158 159 226 230 245 242 218 200 210 254 291 263 288 251 331 36 15 357 341 325 318 312 310 306 300 299 297 293 290 286 284 282 281
116 90 121 153 118 146 242 220 189 190 176 204 226 226 218 217 176 150 147 152 221 283 249 251 237 297 352 328 324 314 314 312 305 305 302 299 297 296 292 287 287 286 286
141 160 157 160 190 202 200 184 188 195 185 204 201 177 171 196 214 239 198 194 201 223 267 201 236 247 285 300 312 316 309 307 307 306 306 304 299 299 297 294 290 287 286
161 173 180 199 184 180 191 186 192 196 203 198 193 193 219 210 218 190 166 166 193 191 248 284 255 252 271 279 306 307 303 299 297 304 307 304 302 298 296 292 292 286 283
181 182 189 171 175 188 192 196 205 196 199 204 210 198 224 218 201 213 201 218 210 212 223 276 256 260 245 296 285 291 302 306 298 302 306 304 301 297 291 286 290 289 282
155 137 134 168 189 218 211 215 214 206 212 215 201 202 209 193 224 209 210 219 227 242 226 251 288 273 277 271 294 290 289 300 295 307 307 303 302 301 295 286 286 290 285
136 152 163 195 226 232 229 217 208 214 218 217 206 203 222 211 220 209 209 221 216 229 240 265 286 291 277 284 267 294 310 302 302 305 300 293 296 299 298 295 290 285 282
97 94 25 290 258 239 236 220 218 218 218 212 205 209 244 244 215 211 191 208 196 215 240 268 283 280 290 303 296 306 297 304 304 287 283 293 298 296 289 291 286 285 282
72 235 263 251 264 255 248 237 221 211 202 204 214 217 213 244 258 243 209 206 188 193 223 232 266 274 282 276 282 290 295 304 313 250 283 299 294 289 287 283 279 284 284
250 262 274 289 271 265 243 248 233 209 200 207 215 220 226 223 219 223 206 200 210 228 214 211 247 252 265 262 287 296 293 283 283 292 297 299 301 288 286 282 285 285 287
255 258 275 277 279 276 259 251 232 209 201 214 213 209 231 227 217 208 206 224 233 236 245 247 235 253 254 266 255 283 296 298 290 285 266 286 301 292 300 289 286 286 286
267 275 273 279 275 276 266 255 214 205 209 219 213 201 215 217 230 228 199 218 237 258 269 259 260 278 294 307 311 318 306 310 306 306 288 261 299 305 291 282 289 291 280
279 282 279 272 266 271 274 261 213 190 215 228 229 214 226 216 223 215 196 204 231 257 244 255 272 283 295 293 301 285 280 294 302 308 265 334 302 298 305 250 276 283 287